Location: Asheville, NC
(35.6000°N, 82.5500°W)
Time: 14:57:28
(UTC-05:00)

Vanguard 3 - Pass Details

Date: 16 December 2017
Orbit: 508 x 3264 km, 33.4° (Epoch: 18 January)

Event Time Altitude Azimuth Distance (km) Brightness Sun altitude
Rises 16:42:34 0° 270° (W) 2,596 10.8 5.5°
Reaches altitude 10° 16:44:52 10° 254° (WSW) 1,757 10.7 5.1°
Maximum altitude 16:47:59 24° 199° (SSW) 1,241 9.0 4.5°
Drops below altitude 10° 16:51:54 10° 145° (SE) 2,234 9.4 3.9°
Sets 16:55:16 0° 132° (SE) 3,523 10.3 3.3°
